Hourly Data Report for July 13, 2021

WINDSOR A
ONTARIO
Current Station Operator: NAVCAN

42°16'34.000" N
82°57'19.000" W
189.60 m
6139530
71538
YQG

Download Data

Hourly Data (July 2021)
Hourly Data Report for July 13, 2021
TIME
LST
Temp Definition
°C
Dew Point Definition
°C
Rel Hum Definition
%
Precip. Amount Definition
mm

Wind Dir Definition
10's deg

Wind Spd Definition
km/h
Visibility Definition
km
Stn Press Definition
kPa
Hmdx Definition


Wind Chill Definition


Weather Definition


00:00 20.4 20.2 99 0.0 9 8 6.4 99.61 28   Fog
01:00 20.4 20.2 99 0.0 5 5 2.0 99.56 28   Fog
02:00 20.5 20.5 100 0.0 8 9 0.8 99.53 28   Fog
03:00 20.7 20.7 100 0.5 9 5 1.2 99.52 29   Rain, Fog
04:00 20.6 20.6 100 0.2   0 1.6 99.48 29   Fog
05:00 20.5 20.5 100 0.2 14 4 2.4 99.49 28   Rain, Fog
06:00 20.5 20.5 100 0.0 14 8 2.4 99.52 28   Fog
07:00 21.3 21.3 100 0.0 15 8 9.7 99.52 30   Rain, Fog
08:00 22.0 22.0 100 0.8 16 9 16.1 99.52 31   LegendNANA
09:00 23.4 22.5 95 0.0 19 15 16.1 99.52 33   LegendNANA
10:00 23.6 22.1 91 0.0 20 15 16.1 99.49 33   LegendNANA
11:00 23.6 21.9 90 0.0 20 22 16.1 99.45 33   LegendNANA
12:00 25.1 22.4 85 0.0 20 24 16.1 99.44 35   LegendNANA
13:00 25.7 21.8 79 0.0 20 30 16.1 99.37 35   LegendNANA
14:00 26.1 21.9 77 0.0 21 30 16.1 99.35 35   LegendNANA
15:00 25.8 21.8 78 0.0 21 21 16.1 99.34 35   LegendNANA
16:00 25.6 21.6 78 0.0 22 21 16.1 99.33 35   Rain
17:00 22.6 20.5 88 0.5 24 30 14.5 99.37 31   Thunderstorms, Rain
18:00 22.6 20.5 88 0.5 24 21 16.1 99.33 31   Rain
19:00 22.2 20.4 89 0.2 25 13 16.1 99.41 30   LegendNANA
20:00 21.5 20.7 95 0.0 21 9 16.1 99.38 30   LegendNANA
21:00 20.7 20.1 96 0.0 23 9 16.1 99.46 28   LegendNANA
22:00 21.0 20.2 95 0.0 24 9 16.1 99.50 29   LegendNANA
23:00 20.0 19.4 96 0.0 23 8 16.1 99.52 27   LegendNANA

Notes on Data Quality.

Legend

  • E = Estimated
  • M = Missing
  • NA = Not Available*
  • [empty] = Indicates an unobserved value
Date modified: